TimePDT,TemperatureF,Dew PointF,Humidity,Sea Level PressureIn,VisibilityMPH,Wind Direction,Wind SpeedMPH,Gust SpeedMPH,PrecipitationIn,Events,Conditions,WindDirDegrees,DateUTC
12:53 AM,63.0,57.9,84,29.94,10.0,West,3.5,-,N/A,,Overcast,260,2013-09-12 07:53:00
1:53 AM,63.0,57.9,84,29.94,10.0,West,4.6,-,N/A,,Overcast,260,2013-09-12 08:53:00
2:53 AM,62.1,57.0,84,29.94,10.0,WSW,5.8,-,N/A,,Overcast,250,2013-09-12 09:53:00
3:53 AM,62.1,57.0,84,29.92,10.0,WSW,4.6,-,N/A,,Overcast,240,2013-09-12 10:53:00
4:53 AM,61.0,57.9,90,29.92,10.0,WSW,4.6,-,N/A,,Overcast,240,2013-09-12 11:53:00
5:53 AM,62.1,57.9,86,29.92,10.0,Calm,Calm,-,N/A,,Overcast,0,2013-09-12 12:53:00
6:15 AM,60.8,57.2,88,29.94,10.0,Calm,Calm,-,N/A,,Overcast,0,2013-09-12 13:15:00
6:53 AM,61.0,57.0,87,29.94,5.0,SSW,3.5,-,N/A,,Overcast,210,2013-09-12 13:53:00
7:53 AM,61.0,57.9,90,29.95,5.0,Calm,Calm,-,N/A,,Overcast,0,2013-09-12 14:53:00
8:53 AM,62.1,57.9,86,29.96,7.0,South,3.5,-,N/A,,Overcast,180,2013-09-12 15:53:00
9:53 AM,63.0,57.9,84,29.96,7.0,South,3.5,-,N/A,,Overcast,180,2013-09-12 16:53:00
10:53 AM,64.0,57.9,80,29.96,7.0,Calm,Calm,-,N/A,,Overcast,0,2013-09-12 17:53:00
11:27 AM,64.4,59.0,83,29.97,10.0,South,4.6,-,N/A,,Overcast,180,2013-09-12 18:27:00
11:53 AM,66.0,59.0,78,29.95,10.0,Calm,Calm,-,N/A,,Overcast,0,2013-09-12 18:53:00
12:22 PM,69.8,59.0,68,29.96,10.0,Variable,3.5,-,N/A,,Scattered Clouds,0,2013-09-12 19:22:00
12:53 PM,70.0,59.0,68,29.93,10.0,Variable,4.6,-,N/A,,Clear,0,2013-09-12 19:53:00
1:53 PM,75.9,60.1,58,29.91,10.0,SSE,3.5,-,N/A,,Clear,150,2013-09-12 20:53:00
2:53 PM,80.1,60.1,50,29.88,10.0,South,5.8,-,N/A,,Clear,180,2013-09-12 21:53:00
3:53 PM,79.0,60.1,52,29.86,10.0,South,10.4,-,N/A,,Clear,180,2013-09-12 22:53:00
4:53 PM,79.0,59.0,50,29.85,10.0,SSE,10.4,-,N/A,,Clear,150,2013-09-12 23:53:00
5:53 PM,77.0,57.0,50,29.84,10.0,South,8.1,-,N/A,,Clear,170,2013-09-13 00:53:00
6:53 PM,69.1,57.0,65,29.85,10.0,SE,11.5,-,N/A,,Clear,140,2013-09-13 01:53:00
7:53 PM,63.0,55.9,78,29.86,10.0,SE,9.2,-,N/A,,Clear,140,2013-09-13 02:53:00
8:53 PM,60.1,55.9,86,29.87,10.0,SSE,6.9,-,N/A,,Clear,160,2013-09-13 03:53:00
9:53 PM,59.0,55.0,87,29.88,10.0,SSE,4.6,-,N/A,,Clear,150,2013-09-13 04:53:00
10:30 PM,57.2,55.4,94,29.90,10.0,SSE,5.8,-,N/A,,Scattered Clouds,150,2013-09-13 05:30:00
10:39 PM,57.2,55.4,94,29.90,10.0,SSE,4.6,-,N/A,,Mostly Cloudy,160,2013-09-13 05:39:00
10:53 PM,57.9,55.9,93,29.88,10.0,SSE,4.6,-,N/A,,Overcast,150,2013-09-13 05:53:00
11:53 PM,57.9,55.9,93,29.88,10.0,SE,4.6,-,N/A,,Overcast,130,2013-09-13 06:53:00